Location: De Har
(53.3413°N, 6.6858°E)
Time: 17:04:57
(UTC+00:00)

Cosmos 2221 - Pass Details

Date: 22 April 2026
Orbit: 568 x 588 km, 82.5° (Epoch: 9 May)

Event Time Altitude Azimuth Distance (km) Brightness Sun altitude
Exits shadow 01:07:48 21° 127° (SE) 1,308 4.1 -21.4°
Maximum altitude 01:09:28 28° 89° (E) 1,094 4.0 -21.3°
Drops below altitude 10° 01:13:00 10° 31° (NNE) 1,883 6.2 -21.0°
Sets 01:15:25 0° 20° (NNE) 2,787 7.4 -20.9°
